Location: Blackfoot
(53.5367°N, 112.7800°W)
Time: 02:42:45
(UTC-06:00)

Amateur Radio Satellites - All Passes

Search period start: 25 October 2014 02:12
Search period end: 26 October 2014 02:12
Location: Blackfoot, 53.5367°N, 112.7800°W

Satellite Date Start Highest point End Downlink Frequencies (MHz)
Time Altitude Azimuth
RS-15 25 Oct 02:13:54 02:24:36 56° 337° (NNW) 02:35:30 29.354 - 29.394 USB, Beacon 29.352 USB
Oscar 19 25 Oct 02:32:51 02:37:27 33° 95° (E) 02:42:02 437.125 CW, 437.150 USB
AO-27 25 Oct 02:51:20 02:55:25 23° 90° (E) 02:59:29 436.795 MHz FM
AO-Echo 25 Oct 03:11:51 03:16:52 41° 97° (E) 03:21:52 ?
Oscar 16 25 Oct 03:18:26 03:23:35 74° 104° (ESE) 03:28:42 437.025 USB, Beacon 2401.1428
Sapphire 25 Oct 03:29:58 03:31:27 11° 101° (ESE) 03:32:57 437.095 MHz 1200 baud AX-25 AFSK
JAS-1B 25 Oct 03:32:17 03:38:40 75° 105° (ESE) 03:46:15 435.800 - 435.900 CW/SSB
Uribyol 2 25 Oct 03:38:23 03:43:31 52° 100° (E) 03:48:35 436.500 FM
MaSat-1 25 Oct 03:43:10 03:43:35 10° 332° (NNW) 03:43:59 437.345 MHz
ITAMSAT 1 25 Oct 03:44:28 03:49:38 55° 101° (E) 03:54:44 435.822 SSB
PCSat 25 Oct 03:50:04 03:53:35 18° 107° (ESE) 03:57:07 145.825 MHz
Gurwin Techsat 1B 25 Oct 04:05:39 04:10:50 48° 99° (E) 04:15:58 435.225 FM
Oscar 19 25 Oct 04:12:05 04:16:59 47° 295° (WNW) 04:21:52 437.125 CW, 437.150 USB
OPAL 25 Oct 04:13:47 04:18:04 28° 55° (NE) 04:22:18 ?
TMSAT-1 25 Oct 04:16:45 04:21:52 46° 98° (E) 04:26:57 436.925 FM
RS-15 25 Oct 04:28:51 04:39:24 49° 10° (N) 04:50:14 29.354 - 29.394 USB, Beacon 29.352 USB
AO-27 25 Oct 04:30:13 04:35:28 70° 290° (WNW) 04:40:39 436.795 MHz FM
AO-Echo 25 Oct 04:50:43 04:55:39 41° 296° (WNW) 05:00:36 ?
JAS-2 25 Oct 04:55:58 04:58:54 12° 75° (ENE) 05:01:50 435.800 - 435.900 CW/SSB, 435.910 FM
Uosat F 25 Oct 04:57:45 05:01:22 19° 89° (E) 05:04:58 435.120 FM
Oscar 16 25 Oct 04:58:30 05:02:30 23° 304° (NW) 05:06:29 437.025 USB, Beacon 2401.1428
Sapphire 25 Oct 05:08:28 05:13:44 56° 122° (ESE) 05:19:04 437.095 MHz 1200 baud AX-25 AFSK
AO-7 25 Oct 05:10:12 05:17:46 37° 95° (E) 05:25:18 29.400 - 29.500 MHz
Uribyol 2 25 Oct 05:18:13 05:22:49 32° 300° (WNW) 05:27:23 436.500 FM
JAS-1B 25 Oct 05:23:42 05:28:59 30° 304° (NW) 05:34:59 435.800 - 435.900 CW/SSB
ITAMSAT 1 25 Oct 05:24:22 05:28:54 31° 301° (WNW) 05:33:26 435.822 SSB
PCSat 25 Oct 05:30:48 05:36:14 81° 127° (SE) 05:41:42 145.825 MHz
Gurwin Techsat 1B 25 Oct 05:45:54 05:50:41 35° 299° (WNW) 05:55:27 435.225 FM
OPAL 25 Oct 05:51:34 05:56:39 62° 255° (WSW) 06:01:42 ?
Oscar 19 25 Oct 05:53:39 05:55:12 11° 316° (NW) 05:56:45 437.125 CW, 437.150 USB
TMSAT-1 25 Oct 05:56:54 06:01:44 36° 299° (WNW) 06:06:32 436.925 FM
STRAND 1 25 Oct 05:58:41 06:02:55 27° 57° (ENE) 06:07:10 ?
Hamsat 25 Oct 05:58:53 05:59:40 10° 84° (E) 06:00:27 145.90 MHz
AO-27 25 Oct 06:10:59 06:14:09 16° 311° (NW) 06:17:18 436.795 MHz FM
AO-Echo 25 Oct 06:32:18 06:33:09 10° 317° (NW) 06:34:00 ?
Uosat F 25 Oct 06:35:41 06:40:46 78° 289° (WNW) 06:45:48 435.120 FM
JAS-2 25 Oct 06:38:19 06:45:45 49° 96° (E) 06:53:19 435.800 - 435.900 CW/SSB, 435.910 FM
RS-15 25 Oct 06:42:22 06:53:28 78° 41° (NE) 07:05:00 29.354 - 29.394 USB, Beacon 29.352 USB
Sapphire 25 Oct 06:52:16 06:57:24 41° 324° (NW) 07:02:34 437.095 MHz 1200 baud AX-25 AFSK
AO-7 25 Oct 07:02:55 07:11:11 70° 297° (WNW) 07:19:26 29.400 - 29.500 MHz
PCSat 25 Oct 07:15:21 07:20:13 32° 330° (NNW) 07:25:07 145.825 MHz
Hamsat 25 Oct 07:32:11 07:36:24 76° 103° (ESE) 07:40:36 145.90 MHz
OPAL 25 Oct 07:35:10 07:36:33 11° 275° (W) 07:37:57 ?
STRAND 1 25 Oct 07:36:40 07:41:46 64° 257° (WSW) 07:46:55 ?
Uosat F 25 Oct 08:15:36 08:18:49 17° 309° (NW) 08:22:02 435.120 FM
JAS-2 25 Oct 08:23:30 08:30:50 53° 297° (WNW) 08:38:23 435.800 - 435.900 CW/SSB, 435.910 FM
SO-67 25 Oct 08:28:43 08:32:05 45° 99° (E) 08:35:24 435.3500 MHz FM
Saudisat 1A 25 Oct 08:30:31 08:34:31 35° 123° (ESE) 08:38:33 436.775 MHz
MaSat-1 25 Oct 08:32:19 08:34:53 28° 45° (NE) 08:37:13 437.345 MHz
Sapphire 25 Oct 08:38:08 08:42:14 21° 349° (NNW) 08:46:21 437.095 MHz 1200 baud AX-25 AFSK
RS-15 25 Oct 08:55:03 09:05:14 44° 247° (WSW) 09:15:49 29.354 - 29.394 USB, Beacon 29.352 USB
AO-7 25 Oct 08:56:19 09:02:45 26° 321° (NW) 09:09:11 29.400 - 29.500 MHz
PCSat 25 Oct 09:01:19 09:05:16 20° 355° (N) 09:09:13 145.825 MHz
Hamsat 25 Oct 09:09:07 09:11:53 17° 303° (WNW) 09:14:39 145.90 MHz
HO-68 25 Oct 09:16:07 09:21:25 21° 87° (E) 09:26:41 435.675 MHz FM
STRAND 1 25 Oct 09:20:24 09:22:01 11° 278° (W) 09:23:39 ?
SO-67 25 Oct 10:02:20 10:04:48 19° 298° (WNW) 10:07:16 435.3500 MHz FM
MaSat-1 25 Oct 10:08:16 10:10:19 19° 248° (WSW) 10:12:14 437.345 MHz
JAS-2 25 Oct 10:09:36 10:14:23 19° 319° (NW) 10:19:18 435.800 - 435.900 CW/SSB, 435.910 FM
Saudisat 1A 25 Oct 10:09:42 10:14:00 51° 324° (NW) 10:18:20 436.775 MHz
Sapphire 25 Oct 10:23:19 10:27:32 22° 15° (NNE) 10:31:45 437.095 MHz 1200 baud AX-25 AFSK
ZACube-1 25 Oct 10:40:54 10:43:08 14° 86° (E) 10:45:21 437.345 MHz
UKube-1 25 Oct 10:43:58 10:47:52 30° 95° (E) 10:51:44 145.840 MHz, 145.915 MHz
PCSat 25 Oct 10:45:59 10:50:29 25° 21° (NNE) 10:54:58 145.825 MHz
AO-7 25 Oct 10:49:20 10:52:48 13° 348° (NNW) 10:56:16 29.400 - 29.500 MHz
HO-68 25 Oct 11:02:57 11:10:13 84° 108° (ESE) 11:17:26 435.675 MHz FM
RS-15 25 Oct 11:13:26 11:14:19 10° 272° (W) 11:15:12 29.354 - 29.394 USB, Beacon 29.352 USB
FUNcube-1 25 Oct 11:24:23 11:28:17 33° 95° (E) 11:32:06 145.950 - 145.970 MHz USB
Oscar 11 25 Oct 11:24:47 11:29:07 69° 103° (ESE) 11:33:24 145.825 FM, Beacon 2401.500 USB
Saudisat 1A 25 Oct 11:50:59 11:54:29 22° 347° (NNW) 11:57:59 436.775 MHz
Sapphire 25 Oct 12:06:58 12:12:15 48° 39° (NE) 12:17:30 437.095 MHz 1200 baud AX-25 AFSK
ZACube-1 25 Oct 12:15:52 12:20:13 84° 286° (WNW) 12:24:25 437.345 MHz
Oscar 19 25 Oct 12:18:56 12:22:27 19° 52° (NE) 12:25:59 437.125 CW, 437.150 USB
UKube-1 25 Oct 12:20:04 12:24:10 40° 295° (WNW) 12:28:14 145.840 MHz, 145.915 MHz
PCSat 25 Oct 12:29:28 12:34:54 65° 45° (NE) 12:40:18 145.825 MHz
JAS-1B 25 Oct 12:36:41 12:41:13 25° 53° (NE) 12:45:47 435.800 - 435.900 CW/SSB
SO-50 25 Oct 12:38:12 12:38:56 10° 108° (ESE) 12:39:41 436.795 FM
AO-7 25 Oct 12:38:28 12:42:16 14° 16° (NNE) 12:46:04 29.400 - 29.500 MHz
AO-27 25 Oct 12:39:15 12:42:04 15° 47° (NE) 12:44:54 436.795 MHz FM
HO-68 25 Oct 12:51:15 12:57:18 31° 310° (NW) 13:03:21 435.675 MHz FM
KITSAT 1 25 Oct 12:51:17 12:58:47 44° 115° (ESE) 13:06:17 435.175 FM
AO-Echo 25 Oct 12:54:25 12:57:58 20° 53° (NE) 13:01:36 ?
FUNcube-1 25 Oct 13:00:48 13:04:43 35° 295° (WNW) 13:08:32 145.950 - 145.970 MHz USB
Oscar 11 25 Oct 13:01:48 13:04:53 20° 302° (WNW) 13:07:58 145.825 FM, Beacon 2401.500 USB
Oscar 16 25 Oct 13:03:13 13:07:56 37° 62° (ENE) 13:12:38 437.025 USB, Beacon 2401.1428
Uribyol 2 25 Oct 13:24:25 13:28:51 29° 58° (ENE) 13:33:18 436.500 FM
ITAMSAT 1 25 Oct 13:30:32 13:35:02 30° 59° (ENE) 13:39:34 435.822 SSB
Saudisat 1A 25 Oct 13:31:59 13:35:24 21° 11° (N) 13:38:50 436.775 MHz
ISS 25 Oct 13:32:32 13:34:23 14° 143° (SE) 13:36:15 145.800 FM
Sapphire 25 Oct 13:50:33 13:55:43 46° 241° (WSW) 14:00:52 437.095 MHz 1200 baud AX-25 AFSK
ZACube-1 25 Oct 13:53:35 13:55:57 15° 307° (NW) 13:58:17 437.345 MHz
Gurwin Techsat 1B 25 Oct 13:54:37 13:59:03 28° 57° (ENE) 14:03:30 435.225 FM
Oscar 19 25 Oct 13:55:59 14:01:09 86° 73° (ENE) 14:06:19 437.125 CW, 437.150 USB
TMSAT-1 25 Oct 14:05:30 14:09:51 26° 57° (ENE) 14:14:12 436.925 FM
PCSat 25 Oct 14:13:18 14:18:01 31° 246° (WSW) 14:22:43 145.825 MHz
SO-50 25 Oct 14:14:02 14:18:30 57° 128° (SE) 14:23:06 436.795 FM
AO-27 25 Oct 14:15:31 14:20:39 62° 68° (ENE) 14:25:50 436.795 MHz FM
JAS-1B 25 Oct 14:25:42 14:31:29 72° 256° (WSW) 14:37:13 435.800 - 435.900 CW/SSB
AO-7 25 Oct 14:25:44 14:32:28 29° 42° (NE) 14:39:14 29.400 - 29.500 MHz
AO-Echo 25 Oct 14:31:07 14:36:05 89° 254° (WSW) 14:41:16 ?
HO-68 25 Oct 14:40:37 14:42:52 12° 335° (NNW) 14:45:06 435.675 MHz FM
Uosat F 25 Oct 14:42:04 14:43:59 12° 45° (NE) 14:45:53 435.120 FM
Oscar 16 25 Oct 14:42:22 14:47:15 43° 262° (W) 14:52:11 437.025 USB, Beacon 2401.1428
KITSAT 1 25 Oct 14:45:52 14:53:56 68° 319° (NW) 15:02:02 435.175 FM
Uribyol 2 25 Oct 15:02:53 15:08:03 59° 258° (WSW) 15:13:15 436.500 FM
ISS 25 Oct 15:07:18 15:10:29 42° 162° (SSE) 15:13:40 145.800 FM
ITAMSAT 1 25 Oct 15:09:10 15:14:18 56° 259° (W) 15:19:29 435.822 SSB
Saudisat 1A 25 Oct 15:11:42 15:15:58 44° 34° (NE) 15:20:14 436.775 MHz
JAS-2 25 Oct 15:16:55 15:20:08 14° 35° (NE) 15:23:29 435.800 - 435.900 CW/SSB, 435.910 FM
Gurwin Techsat 1B 25 Oct 15:33:26 15:38:42 63° 258° (WSW) 15:44:00 435.225 FM
UOSAT-12 25 Oct 15:33:47 15:38:08 39° 123° (ESE) 15:42:33 437.025 FM, 437.400 FM
Oscar 19 25 Oct 15:37:46 15:41:12 18° 273° (W) 15:44:37 437.125 CW, 437.150 USB
TMSAT-1 25 Oct 15:44:07 15:49:23 67° 257° (WSW) 15:54:43 436.925 FM
SO-50 25 Oct 15:54:57 15:59:17 39° 330° (NNW) 16:03:45 436.795 FM
AO-27 25 Oct 15:56:17 16:00:35 26° 268° (W) 16:04:55 436.795 MHz FM
AO-Echo 25 Oct 16:12:38 16:15:41 16° 275° (W) 16:18:47 ?
AO-7 25 Oct 16:16:00 16:24:16 81° 65° (ENE) 16:32:36 29.400 - 29.500 MHz
Uosat F 25 Oct 16:16:51 16:21:42 51° 66° (ENE) 16:26:36 435.120 FM
JAS-1B 25 Oct 16:21:07 16:23:27 12° 278° (W) 16:25:47 435.800 - 435.900 CW/SSB
KITSAT 1 25 Oct 16:43:23 16:50:46 37° 346° (NNW) 16:58:10 435.175 FM
ISS 25 Oct 16:43:39 16:46:58 64° 181° (S) 16:50:17 145.800 FM
Uribyol 2 25 Oct 16:47:38 16:48:40 11° 279° (W) 16:49:42 436.500 FM
Saudisat 1A 25 Oct 16:51:23 16:55:35 42° 235° (SW) 16:59:45 436.775 MHz
Hamsat 25 Oct 16:57:15 17:00:10 19° 58° (ENE) 17:03:05 145.90 MHz
JAS-2 25 Oct 16:57:28 17:03:19 42° 59° (ENE) 17:09:53 435.800 - 435.900 CW/SSB, 435.910 FM
UOSAT-12 25 Oct 17:13:40 17:18:15 50° 324° (NW) 17:22:54 437.025 FM, 437.400 FM
Gurwin Techsat 1B 25 Oct 17:18:00 17:19:46 12° 278° (W) 17:21:34 435.225 FM
TMSAT-1 25 Oct 17:28:12 17:30:22 12° 278° (W) 17:32:32 436.925 FM
SO-50 25 Oct 17:37:19 17:41:00 22° 354° (N) 17:44:46 436.795 FM
OPAL 25 Oct 17:55:42 17:59:20 20° 92° (E) 18:02:55 ?
Uosat F 25 Oct 17:56:22 18:00:45 30° 266° (W) 18:05:10 435.120 FM
HO-68 25 Oct 18:09:07 18:12:02 13° 28° (NNE) 18:14:57 435.675 MHz FM
AO-7 25 Oct 18:10:52 18:17:57 31° 268° (W) 18:25:06 29.400 - 29.500 MHz
ISS 25 Oct 18:20:18 18:23:25 37° 201° (SSW) 18:26:32 145.800 FM
Hamsat 25 Oct 18:31:31 18:35:42 69° 258° (WSW) 18:39:54 145.90 MHz
KITSAT 1 25 Oct 18:40:56 18:48:22 37° 15° (NNE) 18:55:46 435.175 FM
JAS-2 25 Oct 18:42:13 18:48:15 53° 263° (W) 18:55:08 435.800 - 435.900 CW/SSB, 435.910 FM
UOSAT-12 25 Oct 18:55:32 18:59:23 24° 348° (NNW) 19:03:15 437.025 FM, 437.400 FM
SO-67 25 Oct 19:07:13 19:10:29 41° 70° (ENE) 19:13:46 435.3500 MHz FM
SO-50 25 Oct 19:18:54 19:22:57 27° 18° (NNE) 19:27:04 436.795 FM
OPAL 25 Oct 19:33:47 19:38:47 75° 292° (WNW) 19:43:43 ?
STRAND 1 25 Oct 19:41:01 19:45:26 28° 93° (E) 19:49:50 ?
HO-68 25 Oct 19:51:28 19:57:46 35° 52° (NE) 20:04:05 435.675 MHz FM
ISS 25 Oct 19:58:14 19:59:26 12° 220° (SW) 20:00:37 145.800 FM
UKube-1 25 Oct 20:12:42 20:14:12 12° 49° (NE) 20:15:42 145.840 MHz, 145.915 MHz
JAS-2 25 Oct 20:33:23 20:35:17 11° 287° (WNW) 20:37:14 435.800 - 435.900 CW/SSB, 435.910 FM
KITSAT 1 25 Oct 20:37:02 20:45:09 70° 42° (NE) 20:53:13 435.175 FM
UOSAT-12 25 Oct 20:37:05 20:40:56 24° 12° (NNE) 20:44:47 437.025 FM, 437.400 FM
SO-67 25 Oct 20:41:10 20:43:40 19° 269° (W) 20:46:10 435.3500 MHz FM
Oscar 11 25 Oct 20:51:20 20:54:25 20° 58° (ENE) 20:57:31 145.825 FM, Beacon 2401.500 USB
FUNcube-1 25 Oct 20:53:38 20:55:18 12° 51° (NE) 20:56:57 145.950 - 145.970 MHz USB
SO-50 25 Oct 20:59:29 21:04:17 68° 41° (NE) 21:09:09 436.795 FM
OPAL 25 Oct 21:13:47 21:16:56 17° 313° (NW) 21:20:03 ?
RS-15 25 Oct 21:18:41 21:25:34 19° 97° (E) 21:32:26 29.354 - 29.394 USB, Beacon 29.352 USB
STRAND 1 25 Oct 21:19:54 21:24:57 56° 293° (WNW) 21:29:59 ?
HO-68 25 Oct 21:37:53 21:45:02 72° 254° (WSW) 21:52:16 435.675 MHz FM
ZACube-1 25 Oct 21:42:43 21:46:32 27° 62° (ENE) 21:50:19 437.345 MHz
UKube-1 25 Oct 21:45:15 21:49:32 59° 69° (ENE) 21:53:52 145.840 MHz, 145.915 MHz
UOSAT-12 25 Oct 22:17:26 22:22:05 50° 35° (NE) 22:26:40 437.025 FM, 437.400 FM
Oscar 11 25 Oct 22:25:52 22:30:11 70° 257° (WSW) 22:34:31 145.825 FM, Beacon 2401.500 USB
FUNcube-1 25 Oct 22:26:22 22:30:51 60° 70° (ENE) 22:35:16 145.950 - 145.970 MHz USB
KITSAT 1 25 Oct 22:32:48 22:40:13 42° 246° (WSW) 22:47:37 435.175 FM
SO-50 25 Oct 22:40:28 22:44:34 28° 241° (WSW) 22:48:41 436.795 FM
STRAND 1 25 Oct 23:00:45 23:03:09 13° 314° (NW) 23:05:32 ?
ZACube-1 25 Oct 23:18:19 23:22:45 49° 261° (W) 23:27:08 437.345 MHz
UKube-1 25 Oct 23:22:50 23:26:07 21° 269° (W) 23:29:25 145.840 MHz, 145.915 MHz
RS-15 25 Oct 23:24:52 23:35:35 65° 122° (ESE) 23:46:20 29.354 - 29.394 USB, Beacon 29.352 USB
HO-68 25 Oct 23:29:29 23:34:04 18° 276° (W) 23:38:42 435.675 MHz FM
MaSat-1 25 Oct 23:50:38 23:53:20 18° 111° (ESE) 23:55:52 437.345 MHz
UOSAT-12 25 Oct 23:57:47 00:02:13 40° 237° (WSW) 00:06:35 437.025 FM, 437.400 FM
FUNcube-1 26 Oct 00:04:06 00:07:35 21° 269° (W) 00:11:03 145.950 - 145.970 MHz USB
MaSat-1 26 Oct 01:24:49 01:28:40 62° 307° (NW) 01:32:07 437.345 MHz
RS-15 26 Oct 01:37:25 01:48:13 61° 331° (NNW) 01:59:13 29.354 - 29.394 USB, Beacon 29.352 USB
JAS-1B 26 Oct 02:01:16 02:06:24 23° 90° (E) 02:12:11 435.800 - 435.900 CW/SSB
Oscar 19 26 Oct 02:01:53 02:05:31 19° 88° (E) 02:09:08 437.125 CW, 437.150 USB
